Augusta, ME

2:11 AM EST on February 07, 2016 (GMT -0500)
Augusta State

Weather History for KAUG - March, 2013

Change the Weather History Date:

Wednesday, March 13, 2013

  Actual Average Record
Temperature  
Mean Temperature 42 °F 31 °F  
Max Temperature 48 °F 39 °F 62 °F (2012)
Min Temperature 34 °F 22 °F 3 °F (1998)
Degree Days  
Heating Degree Days 24 34  
Month to date heating degree days 470  
Since 1 July heating degree days 5813  
Cooling Degree Days 0 0  
Month to date cooling degree days 0  
Year to date cooling degree days 0  
Moisture  
Dew Point 38 °F    
Average Humidity 85    
Maximum Humidity 100    
Minimum Humidity 53    
Precipitation  
Precipitation 0.05 in 0.10 in 0.44 in (2001)
Month to date precipitation 1.28  
Year to date precipitation 6.32  
Sea Level Pressure  
Sea Level Pressure 29.70 in    
Wind  
Wind Speed 10 mph (NW)    
Max Wind Speed 15 mph    
Max Gust Speed 28 mph    
Visibility 7 miles    
Events Fog , Rain    
T = Trace of Precipitation, MM = Missing Value Source: NWS Daily Summary

Daily Weather History Graph

Daily Weather History Graph

Search for Another Location

Airport or City:

Trip Planner

Search our weather history database for the weather conditions in past years. The results will help you decide how hot, cold, wet, or windy it might be!

Date:

Astronomy

Mar. 13, 2013 Rise Set
Actual Time 6:54 AM EDT 6:43 PM EDT
Civil Twilight 6:25 AM EDT 7:12 PM EDT
Nautical Twilight 5:52 AM EDT 7:45 PM EDT
Astronomical Twilight 5:18 AM EDT 8:20 PM EDT
Moon 7:26 AM EDT (3/13) 9:03 PM EDT (3/13)
Length of Visible Light 12h 46m
Length of Day
11h 48m
Waxing Crescent, 4% of the Moon is Illuminated
Mar 13
Waxing Crescent
Mar 19
First Quarter
Mar 27
Full
Apr 3
Last Quarter
Apr 10
New

Hourly Weather History & Observations

Time (EDT) Temp. Windchill Dew Point Humidity Pressure Visibility Wind Dir Wind Speed Gust Speed Precip Events Conditions
12:20 AM 48.2 °F - 48.2 °F 100% 29.73 in 2.5 mi South 13.8 mph 26.5 mph 0.02 in Rain Light Rain
12:30 AM 48.2 °F - 48.2 °F 100% 29.73 in 2.5 mi South 15.0 mph 27.6 mph 0.03 in Rain Light Rain
12:53 AM 48.0 °F - 46.9 °F 96% 29.73 in 2.5 mi South 13.8 mph 19.6 mph 0.03 in Rain Light Rain
1:07 AM 48.2 °F - 46.4 °F 93% 29.72 in 4.0 mi South 8.1 mph 20.7 mph 0.01 in Rain Light Rain
1:48 AM 48.2 °F - 46.4 °F 93% 29.71 in 4.0 mi South 9.2 mph - 0.01 in   Overcast
1:53 AM 48.0 °F - 46.9 °F 96% 29.72 in 3.0 mi South 9.2 mph 20.7 mph 0.01 in   Overcast
2:01 AM 48.2 °F - 46.4 °F 93% 29.70 in 1.8 mi South 11.5 mph 17.3 mph N/A   Overcast
2:16 AM 46.4 °F 41.1 °F 46.4 °F 100% 29.70 in 0.5 mi South 11.5 mph 18.4 mph N/A Fog Fog
2:25 AM 46.4 °F 43.5 °F 46.4 °F 100% 29.70 in 0.2 mi Variable 5.8 mph 16.1 mph N/A Fog Fog
2:53 AM 46.4 °F 42.9 °F 46.4 °F 100% 29.69 in 0.2 mi South 6.9 mph 17.3 mph N/A Fog Fog
3:27 AM 46.4 °F 44.3 °F 46.4 °F 100% 29.68 in 0.2 mi South 4.6 mph - 0.00 in Fog , Rain Light Rain
3:53 AM 46.4 °F 44.3 °F 44.6 °F 93% 29.68 in 0.2 mi South 4.6 mph - N/A Fog Fog
4:53 AM 45.0 °F 43.5 °F 45.0 °F 100% 29.69 in 0.2 mi WNW 3.5 mph - 0.01 in Fog Fog
5:13 AM 44.6 °F 42.2 °F 44.6 °F 100% 29.68 in 0.8 mi WNW 4.6 mph - N/A   Mist
5:19 AM 44.6 °F 42.2 °F 44.6 °F 100% 29.68 in 2.0 mi West 4.6 mph - N/A   Overcast
5:28 AM 42.8 °F 40.1 °F 42.8 °F 100% 29.69 in 6.0 mi WNW 4.6 mph - N/A   Overcast
5:53 AM 42.1 °F 37.7 °F 42.1 °F 100% 29.70 in 10.0 mi NW 6.9 mph - N/A   Overcast
6:26 AM 41.0 °F 35.8 °F 39.2 °F 93% 29.71 in 10.0 mi NW 8.1 mph - N/A   Overcast
6:53 AM 39.9 °F 34.5 °F 37.9 °F 93% 29.72 in 10.0 mi NNW 8.1 mph - N/A   Overcast
7:53 AM 39.9 °F 33.9 °F 37.9 °F 93% 29.72 in 9.0 mi NNW 9.2 mph - N/A   Overcast
8:21 AM 39.2 °F 33.0 °F 37.4 °F 93% 29.71 in 4.0 mi NNW 9.2 mph - N/A   Overcast
8:27 AM 39.2 °F 33.0 °F 37.4 °F 93% 29.71 in 2.5 mi North 9.2 mph - N/A   Overcast
8:49 AM 39.2 °F 34.2 °F 37.4 °F 93% 29.72 in 5.0 mi North 6.9 mph - N/A   Overcast
8:53 AM 39.0 °F 33.4 °F 37.9 °F 96% 29.73 in 7.0 mi North 8.1 mph - N/A   Overcast
9:03 AM 39.2 °F 32.5 °F 37.4 °F 93% 29.71 in 10.0 mi North 10.4 mph - N/A   Overcast
9:19 AM 39.2 °F 32.5 °F 37.4 °F 93% 29.72 in 10.0 mi North 10.4 mph - N/A   Overcast
9:53 AM 39.9 °F 33.4 °F 37.9 °F 93% 29.72 in 10.0 mi North 10.4 mph - N/A   Overcast
10:33 AM 39.2 °F 32.0 °F 37.4 °F 93% 29.71 in 10.0 mi North 11.5 mph - N/A   Overcast
10:50 AM 39.2 °F 33.0 °F 37.4 °F 93% 29.70 in 10.0 mi North 9.2 mph - N/A   Overcast
10:53 AM 39.9 °F 33.9 °F 37.0 °F 89% 29.71 in 10.0 mi North 9.2 mph - N/A   Overcast
11:30 AM 41.0 °F 34.7 °F 37.4 °F 87% 29.69 in 10.0 mi North 10.4 mph - N/A   Overcast
11:53 AM 42.1 °F 35.7 °F 37.0 °F 82% 29.70 in 10.0 mi North 11.5 mph - N/A   Overcast
12:33 PM 42.8 °F 37.5 °F 37.4 °F 81% 29.67 in 10.0 mi North 9.2 mph - N/A   Overcast
12:53 PM 44.1 °F 38.6 °F 37.0 °F 76% 29.68 in 10.0 mi North 10.4 mph - N/A   Overcast
1:53 PM 45.0 °F 40.6 °F 37.0 °F 74% 29.67 in 10.0 mi North 8.1 mph - N/A   Overcast
2:53 PM 46.9 °F - 35.1 °F 63% 29.66 in 10.0 mi WNW 4.6 mph - N/A   Overcast
3:53 PM 46.9 °F - 32.0 °F 56% 29.66 in 10.0 mi West 10.4 mph - N/A   Overcast
4:53 PM 46.0 °F 41.9 °F 30.0 °F 54% 29.67 in 10.0 mi WNW 8.1 mph - N/A   Overcast
5:53 PM 44.1 °F 38.6 °F 28.0 °F 53% 29.67 in 10.0 mi NW 10.4 mph - N/A   Overcast
6:53 PM 42.1 °F 35.7 °F 26.1 °F 53% 29.69 in 10.0 mi NW 11.5 mph - N/A   Overcast
7:53 PM 39.9 °F 35.8 °F 25.0 °F 55% 29.70 in 10.0 mi NW 5.8 mph - N/A   Overcast
8:53 PM 39.0 °F 34.0 °F 25.0 °F 57% 29.73 in 10.0 mi WNW 6.9 mph - N/A   Overcast
9:53 PM 37.0 °F 32.4 °F 23.0 °F 57% 29.73 in 10.0 mi NW 5.8 mph - N/A   Mostly Cloudy
10:53 PM 35.1 °F 29.3 °F 21.9 °F 59% 29.72 in 10.0 mi WNW 6.9 mph - N/A   Clear
11:53 PM 34.0 °F 29.8 °F 21.9 °F 61% 29.71 in 10.0 mi WNW 4.6 mph - N/A   Clear